Terug naar catalogus

ARIANE 44L DEB

ActiefHEO
NORAD 28575·DEBRIS·🇫🇷 France

Gelanceerd Oct 29, 1991 vanaf Guiana Space Centre

Loading…

Volgende Passages (komende 24 uur)

TLE

VersSource: Space-Track

Epoch: Sep 14, 2026, 19:10 UTC

1 28575U 91075M   26257.79884771 -.00000246  00000-0 -65509-2 0  9993
2 28575   6.3431 330.5867 6588678 115.8748 314.1550  2.82845391253012

Volg ARIANE 44L DEB in realtime met AllMySat

Download on the App Store